Location: Casteau
(50.5142°N, 4.0161°E)
Time: 02:22:00
(UTC+00:00)

S-56A Canister/Altair - Pass Details

Date: 05 August 2021
Orbit: 632 x 2500 km, 38.9° (Epoch: 16 September)

Event Time Altitude Azimuth Distance (km) Brightness Sun altitude
Rises 10:54:24 0° 179° (S) 4,817 12.1 54.5°
Reaches altitude 10° 10:59:19 10° 158° (SSE) 4,207 12.1 54.8°
Maximum altitude 11:05:03 15° 128° (SE) 4,160 12.0 55.1°
Drops below altitude 10° 11:11:32 10° 99° (E) 4,900 12.0 55.5°
Sets 11:18:06 0° 81° (E) 6,113 12.2 55.7°
